Regional Weather Roundup
Issued by NWS

Home | Current Version | Previous Version | Text Only | Print | Product List | Glossary Off
Versions: 1 2 3 4 5 6 7 8 9 10 11 12 13 14 15 16 17 18 19 20 21 22 23 24 25 26 27 28 29 30 31 32 33 34 35 36 37 38 39 40 41 42 43 44 45 46 47 48 49 50

078
ASUS45 KBOU 050207
RWRCO

WEATHER ROUNDUP FOR COLORADO
NATIONAL WEATHER SERVICE DENVER/BOULDER CO
800 PM MDT WED MAY 04 2016

NOTE: "FAIR" INDICATES FEW OR NO CLOUDS BELOW 12000 FEET WITH NO
SIGNIFICANT WEATHER AND/OR OBSTRUCTIONS TO VISIBILITY.

COZ001>005-013-030-031-050300-
...NORTHWEST COLORADO...

CITY           SKY/WX    TMP DP  RH WIND       PRES   REMARKS
CRAIG          FAIR      61  37  41 W3        30.12S
HAYDEN         FAIR      66  25  20 CALM      30.15S
MEEKER         FAIR      66  27  23 SW7       30.14R
MOUNT WERNER   NOT AVBL
STEAMBOAT SPGS FAIR      64  27  25 NW3       30.17S
WALDEN         FAIR      54  21  28 W5        30.27S
$$

COZ006>008-011-050300-
...WEST CENTRAL VALLEYS...

CITY           SKY/WX    TMP DP  RH WIND       PRES   REMARKS
GRAND JUNCTION FAIR      71  34  25 NW5       30.05S
MONTROSE       FAIR      71  29  21 CALM      30.12S
EAGLE          FAIR      66  27  22 SW5       30.17R
RIFLE          FAIR      67  29  24 W8        30.08S
DELTA          NOT AVBL
NUCLA          NOT AVBL
$$

COZ017>023-064>068-050300-
...SOUTHWEST COLORADO...

CITY           SKY/WX    TMP DP  RH WIND       PRES   REMARKS
DURANGO        FAIR      60  34  37 NE6       30.20F
CORTEZ         FAIR      66  28  24 SE7       30.14S
PAGOSA SPRINGS FAIR      59  24  26 W3        30.27F
TELLURIDE      FAIR      58  20  23 S7G16     30.34S
WOLF CREEK PAS FAIR      37  19  48 SW15      30.53S
$$

COZ009-010-012-014-032>034-037-058>063-050300-
...CENTRAL COLORADO...

CITY           SKY/WX    TMP DP  RH WIND       PRES   REMARKS
ASPEN          FAIR      61  18  18 SE8       30.22S
BUENA VISTA    FAIR      60  24  25 E10       30.24S
COPPER MTN     NOT AVBL
BERTHOUD PASS  FAIR      32  25  74 E17G25    30.52S WCI  21
COTTONWOOD PAS CLOUDY    55   9  15 W8        30.36S
GUNNISON       FAIR      63  23  22 W5        30.25S
KREMMLING      FAIR      59  21  23 CALM      30.21S
LEADVILLE      FAIR      51  12  21 S3        30.35S
MONARCH PASS   MOCLDY    39  23  52 SW12G20   30.59S
SALIDA         NOT AVBL
SUNLIGHT       FAIR      48  23  37 CALM      30.44S
WILKERSON PASS FAIR      43  19  39 S10       30.48S
$$

COZ069>075-050300-
...SAN LUIS VALLEY/SANGRE DE CRISTO MOUNTAINS...

CITY           SKY/WX    TMP DP  RH WIND       PRES   REMARKS
ALAMOSA        FAIR      60  29  30 S6        30.23S
LA VETA PASS   FAIR      46  14  27 S7        30.40S
SAGUACHE       FAIR      59  32  36 CALM      30.27S
$$

COZ035-036-038>040-050300-
...NORTHERN COLORADO FRONT RANGE...

CITY           SKY/WX    TMP DP  RH WIND       PRES   REMARKS
DENVER INTL AP FAIR      61  37  41 E10       30.14R
DMNS CITY PARK   N/A     66  32  27 E14       30.13R
AURORA         FAIR      61  38  42 E7        30.16R
FRONT RANGE AP PTCLDY    57  41  54 E13       30.15S
ERIE MUNI ARPT FAIR      65  34  32 CALM      30.13R
BOULDER MUN AP FAIR      66  32  28 CALM      30.13S
CENTENNIAL     FAIR      63  34  33 E9        30.15S
BROOMFIELD     PTCLDY    66  30  26 NE3       30.15S
FORT COLLINS   FAIR      64  37  36 SE6       30.11R
LONGMONT       FAIR      69  32  25 CALM      30.14S
$$

COZ041-046-047-076>085-087-088-050300-
...PIKES PEAK/PALMER DIVIDE AND SOUTHERN FOOTHILLS...

CITY           SKY/WX    TMP DP  RH WIND       PRES   REMARKS
COLO. SPRINGS  FAIR      62  28  27 SE8       30.19S
A. F. ACADEMY  FAIR      61  27  27 S7        30.19S
SCHRIEVER AFB  NOT AVBL
ELLICOTT       FAIR     N/A N/A N/A S8        30.19R
FALCON         NOT AVBL
FORT CARSON    FAIR      62  31  31 S7        30.16S
LIMON          FAIR      55  40  56 E9        30.16R
MONUMENT HILL  FAIR      52  36  54 S9        30.24S
TRINIDAD       FAIR      65  28  24 SE9       30.15F
$$

COZ042>045-048>051-090-091-050300-
...NORTHEAST COLORADO...

CITY           SKY/WX    TMP DP  RH WIND       PRES   REMARKS
GREELEY ARPT   FAIR      64  39  39 S8        30.11S
AKRON          FAIR      60  42  51 SE7       30.12S
BURLINGTON     FAIR      62  43  49 E10       30.13R
WRAY           NOT AVBL
STERLING       FAIR      64  43  45 SE5       30.08S
HOLYOKE        NOT AVBL
FORT MORGAN    FAIR      62  39  43 E9        30.11S
$$

COZ086-089-092>099-050300-
...SOUTHEAST COLORADO...

CITY           SKY/WX    TMP DP  RH WIND       PRES   REMARKS
PUEBLO         FAIR      69  33  26 E8        30.10R
LA JUNTA       FAIR      70  37  29 SE8       30.09S
LAMAR          FAIR      65  43  44 SE12      30.06S
SPRINGFIELD      N/A     58  42  55 SE8       30.12S
$$




USA.gov is the U.S. government's official web portal to all federal, state and local government web resources and services.